Location: Strawberry
(45.6646°N, 111.9596°W)
Time: 18:24:12
(UTC+00:00)

SR - Pass Details

Date: 07 October 2022
Orbit: 577 x 874 km, 66.7° (Epoch: 05 December)

Event Time Altitude Azimuth Distance (km) Brightness Sun altitude
Rises 11:53:48 0° 326° (NNW) 3,336 ? -18.2°
Reaches altitude 10° 11:56:20 10° 327° (NNW) 2,359 ? -17.8°
Maximum altitude 12:01:45 90° 246° (WSW) 746 ? -16.9°
Drops below altitude 10° 12:06:39 10° 149° (SSE) 2,143 ? -16.0°
Sets 12:08:52 0° 149° (SSE) 3,010 ? -15.7°
